Volver al catálogo

CZ-4 DEB

ActivoSSO
NORAD 20879·DEBRIS·🇨🇳 China

Lanzado Sep 3, 1990 desde Taiyuan Satellite Launch Center

Loading…

Próximos Pases (próximas 24 horas)

TLE

ActualizadoSource: Space-Track

Época: Sep 14, 2026, 13:06 UTC

1 20879U 90081AP  26257.54594451  .00000582  00000-0  37263-3 0  9992
2 20879  99.4061 104.3891 0096815 284.9730 103.1473 14.05430975654209

Sigue CZ-4 DEB en tiempo real con AllMySat

Download on the App Store